STARLINK-1262, 45366

Orbit data source: Space-Track

STARLINK-1262, 45366 is a payload satellite owned by SpaceX/Seattle (US) in LEO that was launched on Wed, 18 Mar 2020 UTC via an FALCON 9 launch vehicle from the Air Force Eastern Test Range (AFETR). Payload-class satellites include a variety of spacecraft equipped with specific instruments for various scientific and technological missions. These include communications satellites like Starlink; space stations such as the ISS; scientific satellites like the Hubble; Earth observation satellites from companies like Planet Labs, Umbra, and HawkEye 360; GPS; miniature CubeSats for education and research; and military/defense satellites.

Loading next visibility...
Identifier
45366, 2020-019G
Orbit
LEO
Last TLE update
11 hours ago
Origin
Manufacturer
SpaceX/Seattle
Mission
Operational Commercial Communications
Bus & Motor
STARLINK, Unknown motor
Mass
260 kg wet, ~248 kg dry
Launch date (UTC)
2020-03-18 (5 years ago)
Launch vehicle
FALCON 9
Launch site
Air Force Eastern Test Range (AFETR)
Object type
Payload
Rocket body
Debris
Shape & HBR
Box + 1 Pan, 8.86 m
Radar Cross Section
13.562 m², Large (>1 m²)

Expand to show TLE details & history

TLE from 11 hours ago
0 STARLINK-1262
1 45366U 20019G   25170.56020736  .00000597  00000-0  58955-4 0  9997
2 45366  53.0549 267.8506 0001165  95.3238 264.7884 15.06413160290073
Epoch: 2025-06-19T13:26Z
TLE epoch observation values (Epoch: 2025-06-19T13:26:41.915Z)
Latitude
-0.00004°
Longitude
158.14979°
Altitude
548.124 km
Speed
7.589 km/s
True Right ascension
17h 51m 24s
True Declination
0° 00' 00"
Sunlit
Object was in full shadow at epoch
Visualization orbit readout
Latitude
46.52143°
Longitude
-151.92066°
Altitude
551.508 km
Speed
7.592 km/s
Apparent Right ascension
22h 29m 40s
Apparent Declination
5° 50' 51"
Sunlit
Object is in daylight
Visualization observer readout
Local Sidereal Time
11:46:10
Azimuth
25.57° NE
Elevation
-40.958°
Doppler factor
1
Orbital elements
Apogee altitude
548.249 km
Perigee altitude
546.635 km
Semi-major axis
6,925.579 km
Eccentricity
0.00012
Inclination
53.0549°
RAAN
267.8506°
Arg. of periapsis
95.3238°
True anomaly
Unknown
Mean anomaly
264.7884°
Eccentric anomaly
Unknown
Mean motion
3.76582 °/min
Orbital period
95.6 mins
BSTAR
0.000058955
Loading maneuver chart data...
Loading SW <> Apogee altitude chart data...
Loading historical data...
Loading historical data...
Loading historical data...
Loading historical data...
Loading historical data...
Loading historical data...
Loading historical data...

STARLINK-1262 Visibility forecast

Observer location: undefined°, undefined°

Span
Click to sort rows by Start time (UTC) header in descending order
Start Az.
Max El. time (UTC)
Max El. Az.
Max El.
End time (UTC)
End Az.
7 mins2025-06-20 08:42:40.218Z206.705° SW2025-06-20 08:45:40.218Z156.546° SSE35.517°2025-06-20 08:49:40.218Z61.884° ENE
5 mins2025-06-20 10:23:40.218Z285.101° WNW2025-06-20 10:25:40.218Z329.314° NNW26.222°2025-06-20 10:28:40.218Z28.426° NE
4 mins2025-06-20 13:45:40.218Z348.031° N2025-06-20 13:47:40.218Z22.171° NNE15.517°2025-06-20 13:49:40.218Z52.476° ENE
6 mins2025-06-20 15:24:40.218Z323.467° NNW2025-06-20 15:27:40.218Z40.756° NE37.374°2025-06-20 15:30:40.218Z107.221° ESE
5 mins2025-06-20 17:04:40.218Z272.283° WNW2025-06-20 17:06:40.218Z234.862° WSW21.357°2025-06-20 17:09:40.218Z181.963° SSW
|